When you browse on this site, cookies collect data to enhance your experience and personalize the content and advertising you see.
Visit our Privacy Policy to learn more. By continuing to use the site, you agree to this use of cookies and data.
  • In Spain
  • List of Countries
  • For 7 days
  • Water Temperature
  • Satellite Maps
  • Weather Map
  • Weather Widgets
  • user-avatar
    Login

    Hourly Weather Spring Garden

    Today, 19 February, Tuesday

    Time Temperature Precipitation Wind Pressure Humidity
    00:00 -10°C° 0 mm 1 mps 646 mmHg 93%
    01:00 -10°C° 0 mm 1 mps 646 mmHg 93%
    02:00 -10°C° 0 mm 1 mps 645 mmHg 93%
    03:00 -10°C° 0 mm 1 mps 645 mmHg 92%
    04:00 -11°C° 0 mm 1 mps 645 mmHg 91%
    05:00 -11°C° 0 mm 1 mps 645 mmHg 91%
    06:00 -11°C° 0 mm 1 mps 645 mmHg 91%
    07:00 -11°C° 0 mm 1 mps 645 mmHg 91%
    08:00 -7°C° 0 mm 1 mps 646 mmHg 86%
    09:00 -3°C° 0 mm 1 mps 647 mmHg 81%
    10:00 +1°C° 0 mm 1 mps 648 mmHg 76%
    11:00 +2°C° 0 mm 1 mps 647 mmHg 77%
    12:00 +3°C° 0 mm 1 mps 647 mmHg 78%
    13:00 +4°C° 0 mm 0 mps 647 mmHg 79%
    14:00 +4°C° 0 mm 1 mps 646 mmHg 83%
    15:00 +4°C° 0 mm 1 mps 646 mmHg 87%
    16:00 +4°C° 0 mm 1 mps 645 mmHg 91%
    17:00 +3°C° 0 mm 1 mps 645 mmHg 93%
    18:00 +2°C° 0 mm 1 mps 645 mmHg 96%
    19:00 +1°C° 0 mm 1 mps 644 mmHg 98%
    20:00 0°C° 0 mm 1 mps 644 mmHg 98%
    21:00 0°C° 0 mm 1 mps 644 mmHg 98%
    22:00 -1°C° 0 mm 1 mps 643 mmHg 98%
    23:00 -1°C° 0 mm 1 mps 643 mmHg 98%

    Tomorrow, 20 February, Wednesday

    Time Temperature Precipitation Wind Pressure Humidity
    00:00 -2°C° 0 mm 1 mps 643 mmHg 97%
    01:00 -3°C° 0 mm 1 mps 642 mmHg 97%
    02:00 -3°C° 0.1 mm 1 mps 642 mmHg 97%
    03:00 -3°C° 0.1 mm 1 mps 642 mmHg 97%
    04:00 -3°C° 0.1 mm 1 mps 641 mmHg 97%
    05:00 -3°C° 0.2 mm 1 mps 641 mmHg 97%
    06:00 -3°C° 0.2 mm 1 mps 641 mmHg 97%
    07:00 -3°C° 0.2 mm 1 mps 640 mmHg 97%
    08:00 -4°C° 0.3 mm 2 mps 640 mmHg 95%
    09:00 -3°C° 0.3 mm 2 mps 640 mmHg 92%
    10:00 -2°C° 0.3 mm 2 mps 640 mmHg 90%
    11:00 -2°C° 0.8 mm 2 mps 639 mmHg 91%
    12:00 -2°C° 0.8 mm 2 mps 639 mmHg 92%
    13:00 -4°C° 0.8 mm 3 mps 638 mmHg 93%
    14:00 -2°C° 0.9 mm 2 mps 638 mmHg 91%
    15:00 -2°C° 0.9 mm 2 mps 637 mmHg 89%
    16:00 -2°C° 0.9 mm 2 mps 637 mmHg 87%
    17:00 -2°C° 0.1 mm 1 mps 636 mmHg 89%
    18:00 -4°C° 0.1 mm 1 mps 636 mmHg 91%
    19:00 -7°C° 0.1 mm 0 mps 635 mmHg 92%
    20:00 -7°C° 0 mm 1 mps 635 mmHg 92%
    21:00 -8°C° 0 mm 1 mps 635 mmHg 92%
    22:00 -8°C° 0 mm 1 mps 635 mmHg 92%
    23:00 -9°C° 0 mm 1 mps 635 mmHg 93%

    Day after tomorrow, 21 February, Thursday

    Time Temperature Precipitation Wind Pressure Humidity
    00:00 -9°C° 0 mm 1 mps 635 mmHg 93%
    01:00 -10°C° 0 mm 1 mps 635 mmHg 94%
    02:00 -10°C° 0 mm 1 mps 635 mmHg 94%
    03:00 -10°C° 0 mm 1 mps 635 mmHg 95%
    04:00 -10°C° 0 mm 1 mps 635 mmHg 96%
    05:00 -12°C° 0 mm 2 mps 635 mmHg 96%
    06:00 -12°C° 0 mm 2 mps 635 mmHg 96%
    07:00 -10°C° 0 mm 2 mps 636 mmHg 96%
    08:00 -8°C° 0 mm 2 mps 636 mmHg 91%
    09:00 -6°C° 0 mm 2 mps 637 mmHg 86%
    10:00 -5°C° 0 mm 3 mps 638 mmHg 81%
    11:00 -4°C° 0.1 mm 3 mps 638 mmHg 80%
    12:00 -4°C° 0.1 mm 3 mps 638 mmHg 79%
    13:00 -4°C° 0.1 mm 4 mps 638 mmHg 77%
    14:00 -4°C° 0.1 mm 4 mps 638 mmHg 77%
    15:00 -4°C° 0.1 mm 4 mps 638 mmHg 77%
    16:00 -4°C° 0.1 mm 4 mps 638 mmHg 77%
    17:00 -7°C° 0 mm 4 mps 638 mmHg 80%
    18:00 -7°C° 0 mm 3 mps 639 mmHg 84%
    19:00 -8°C° 0 mm 3 mps 639 mmHg 88%
    20:00 -8°C° 0 mm 2 mps 639 mmHg 90%
    21:00 -9°C° 0 mm 2 mps 639 mmHg 91%
    22:00 -10°C° 0 mm 2 mps 640 mmHg 93%
    23:00 -10°C° 0 mm 2 mps 640 mmHg 93%

    22 February, Friday

    Time Temperature Precipitation Wind Pressure Humidity
    00:00 -12°C° 0 mm 2 mps 640 mmHg 93%
    01:00 -12°C° 0 mm 2 mps 640 mmHg 94%
    02:00 -13°C° 0 mm 2 mps 640 mmHg 94%
    03:00 -13°C° 0 mm 2 mps 640 mmHg 94%
    04:00 -13°C° 0 mm 2 mps 641 mmHg 94%
    05:00 -13°C° 0 mm 2 mps 641 mmHg 94%
    06:00 -13°C° 0 mm 2 mps 641 mmHg 93%
    07:00 -13°C° 0 mm 2 mps 642 mmHg 93%
    08:00 -8°C° 0 mm 1 mps 643 mmHg 87%
    09:00 -3°C° 0 mm 1 mps 644 mmHg 82%
    10:00 0°C° 0 mm 1 mps 645 mmHg 77%
    11:00 +2°C° 0 mm 1 mps 645 mmHg 77%
    12:00 +3°C° 0 mm 1 mps 645 mmHg 78%
    13:00 +3°C° 0 mm 0 mps 645 mmHg 78%
    14:00 +3°C° 0 mm 0 mps 645 mmHg 79%
    15:00 +4°C° 0 mm 1 mps 645 mmHg 81%
    16:00 +3°C° 0 mm 1 mps 644 mmHg 82%
    17:00 +1°C° 0 mm 1 mps 644 mmHg 86%
    18:00 -1°C° 0 mm 1 mps 643 mmHg 91%
    19:00 -4°C° 0 mm 1 mps 643 mmHg 95%
    20:00 -4°C° 0 mm 1 mps 643 mmHg 96%
    21:00 -6°C° 0 mm 1 mps 644 mmHg 96%
    22:00 -6°C° 0 mm 1 mps 644 mmHg 97%
    23:00 -7°C° 0 mm 1 mps 644 mmHg 96%

    23 February, Saturday

    Time Temperature Precipitation Wind Pressure Humidity
    00:00 -7°C° 0 mm 1 mps 644 mmHg 94%
    01:00 -8°C° 0 mm 1 mps 643 mmHg 93%
    02:00 -8°C° 0 mm 1 mps 644 mmHg 93%
    03:00 -8°C° 0 mm 1 mps 644 mmHg 92%
    04:00 -8°C° 0 mm 1 mps 644 mmHg 92%
    05:00 -8°C° 0 mm 1 mps 644 mmHg 93%
    06:00 -7°C° 0 mm 1 mps 644 mmHg 93%
    07:00 -7°C° 0 mm 1 mps 645 mmHg 94%
    08:00 -6°C° 0 mm 2 mps 645 mmHg 90%
    09:00 -4°C° 0 mm 2 mps 646 mmHg 86%
    10:00 -2°C° 0 mm 3 mps 646 mmHg 82%
    11:00 -1°C° 0.1 mm 3 mps 646 mmHg 83%
    12:00 -1°C° 0.1 mm 3 mps 645 mmHg 84%
    13:00 -1°C° 0.1 mm 4 mps 645 mmHg 85%
    14:00 -2°C° 0.5 mm 4 mps 645 mmHg 88%
    15:00 -2°C° 0.5 mm 4 mps 645 mmHg 90%
    16:00 -1°C° 0.5 mm 3 mps 644 mmHg 92%
    17:00 -1°C° 0.8 mm 3 mps 645 mmHg 94%
    18:00 -1°C° 0.8 mm 3 mps 645 mmHg 95%
    19:00 -1°C° 0.8 mm 3 mps 645 mmHg 97%
    20:00 -1°C° 0.3 mm 3 mps 646 mmHg 96%
    21:00 -2°C° 0.3 mm 3 mps 646 mmHg 95%
    22:00 -2°C° 0.3 mm 3 mps 646 mmHg 95%
    23:00 -2°C° 0.2 mm 3 mps 646 mmHg 95%

    24 February, Sunday

    Time Temperature Precipitation Wind Pressure Humidity
    00:00 -2°C° 0.2 mm 3 mps 646 mmHg 95%
    01:00 -3°C° 0.2 mm 2 mps 646 mmHg 94%
    02:00 -3°C° 0.1 mm 2 mps 646 mmHg 95%
    03:00 -4°C° 0.1 mm 2 mps 646 mmHg 95%
    04:00 -2°C° 0.1 mm 1 mps 646 mmHg 95%
    05:00 -3°C° 0.1 mm 1 mps 646 mmHg 96%
    06:00 -3°C° 0.1 mm 1 mps 646 mmHg 96%
    07:00 -3°C° 0.1 mm 1 mps 646 mmHg 96%
    08:00 -2°C° 0.1 mm 1 mps 646 mmHg 92%
    09:00 -1°C° 0.1 mm 1 mps 647 mmHg 87%
    10:00 0°C° 0.1 mm 1 mps 647 mmHg 83%
    11:00 -1°C° 0.1 mm 2 mps 646 mmHg 83%
    12:00 -1°C° 0.1 mm 2 mps 646 mmHg 83%
    13:00 -1°C° 0.1 mm 2 mps 646 mmHg 83%
    14:00 -1°C° 0.2 mm 2 mps 645 mmHg 84%
    15:00 -1°C° 0.2 mm 2 mps 645 mmHg 85%
    16:00 -2°C° 0.2 mm 2 mps 644 mmHg 86%
    17:00 -3°C° 0.1 mm 2 mps 644 mmHg 89%
    18:00 -2°C° 0.1 mm 1 mps 644 mmHg 93%
    19:00 -4°C° 0.1 mm 1 mps 644 mmHg 97%
    20:00 -4°C° 0 mm 1 mps 644 mmHg 97%
    21:00 -6°C° 0 mm 1 mps 644 mmHg 97%
    22:00 -7°C° 0 mm 0 mps 644 mmHg 97%
    23:00 -6°C° 0 mm 0 mps 644 mmHg 97%
    Show more